STARLINK-35377, 66185

Orbit data source: Space-Track

STARLINK-35377, 66185 is a payload satellite owned by SpaceX/Seattle (US) in LEO that was launched on Sun, 26 Oct 2025 UTC via an FALCON 9 launch vehicle from the Air Force Eastern Test Range (AFETR). Payload-class satellites include a variety of spacecraft equipped with specific instruments for various scientific and technological missions. These include communications satellites like Starlink; space stations such as the ISS; scientific satellites like the Hubble; Earth observation satellites from companies like Planet Labs, Umbra, and HawkEye 360; GPS; miniature CubeSats for education and research; and military/defense satellites.

Loading next visibility...
Identifier
66185, 2025-243J
Orbit
LEO
Country
Flag of USUS
Related business
Manufacturer
SpaceX/Seattle
Mission
Operational Commercial Communications
Bus & Motor
STARLINK V2MO, Unknown motor
Mass
575 kg wet, ~530 kg dry
Launch date (UTC)
2025-10-26 (4 months ago)
Launch vehicle
FALCON 9
Launch site
Air Force Eastern Test Range (AFETR)
Object type
Payload
Rocket body
Debris
Shape & HBR
Box + 2 Pan, 17.7 m
Radar Cross Section
36.964 m²

Expand to show TLE details & history
Last TLE update: 9 hours ago

TLE from 9 hours ago
0 STARLINK-35377
1 66185U 25243J   26061.78689388  .00016723  00000-0  57546-3 0  9993
2 66185  53.1574 277.5526 0000707  91.1578 268.9503 15.30201107 19599
Epoch: 2026-03-02T18:53Z
TLE epoch observation values (Epoch: 2026-03-02T18:53:07.631Z)
Latitude
-0.00007°
Longitude
-166.30455°
Altitude
476.12 km
Speed
7.629 km/s
True Right ascension
18h 30m 12s
True Declination
0° 00' 00"
Sunlit
Object was in daylight at epoch
Visualization orbit readout
Latitude
Unknown
Longitude
Unknown
Altitude
Unknown
Speed
Unknown
Apparent Right ascension
Unknown
Apparent Declination
Unknown
Sunlit
N/A
Visualization observer readout
Local Sidereal Time
07:12:27
Azimuth
Unknown
Elevation
Unknown
Doppler factor
Unknown
Orbital elements
Apogee altitude
475.953 km
Perigee altitude
474.984 km
Semi-major axis
6,853.606 km
Eccentricity
0.00007
Inclination
53.1574°
RAAN
277.5526°
Arg. of periapsis
91.1578°
True anomaly
268.9422°
Mean anomaly
268.9503°
Eccentric anomaly
268.94625°
Mean motion
3.82529 °/min
Orbital period
94.11 mins
BSTAR
0.00057546
Loading maneuver chart data...
Computing Atmospheric mass density...
Loading historical data...
Loading historical data...
Loading historical data...
Loading historical data...
Loading historical data...
Loading historical data...
Loading historical data...

Documentation

Showing up to 5 results
|